Regional Weather Roundup
Issued by NWS Charleston, WV

Home | Current Version | Previous Version | Text Only | Print | Product List | Glossary Off
Versions: 1 2 3 4 5 6 7 8 9 10 11 12 13 14 15 16 17 18 19 20 21 22 23 24 25 26 27 28 29 30 31 32 33 34 35 36 37 38 39 40 41 42 43 44 45 46 47 48 49 50

991
ASUS41 KRLX 090210
RWRRLX
West Virginia Regional Weather Roundup
National Weather Service Charleston WV
Issued by National Weather Service Pittsburgh PA
900 PM EST THU DEC 08 2016

Note: "fair" indicates few or no clouds below 12,000 feet with no
significant weather and/or obstructions to visibility.

WVZ003-090300-
Northern Panhandle of West Virginia

CITY           SKY/WX    TMP DP  RH WIND       PRES   REMARKS
WHEELING       LGT SNOW  22  15  75 W13       30.25R WCI  10
$$

WVZ009-090300-
Northwest West Virginia

CITY           SKY/WX    TMP DP  RH WIND       PRES   REMARKS
PARKERSBURG    CLOUDY    26  13  57 NW8       30.35R WCI  18
$$

WVZ006-090300-
Western West Virginia

CITY           SKY/WX    TMP DP  RH WIND       PRES   REMARKS
HUNTINGTON     PTCLDY    28  16  60 NW9       30.36R WCI  19
$$

WVZ015-090300-
West Central West Virginia

CITY           SKY/WX    TMP DP  RH WIND       PRES   REMARKS
CHARLESTON     PTCLDY    28  16  60 NW7       30.32R WCI  21
$$

WVZ031-090300-
North Central West Virginia

CITY           SKY/WX    TMP DP  RH WIND       PRES   REMARKS
CLARKSBURG     CLOUDY    25  12  58 NW17      30.26R WCI  12
MORGANTOWN     CLOUDY    25  13  60 NW7G17    30.25R WCI  17
$$

WVZ035-042-090300-
South Central West Virginia

CITY           SKY/WX    TMP DP  RH WIND       PRES   REMARKS
BECKLEY        CLOUDY    25  11  55 W15       30.21R WCI  13
BLUEFIELD      PTCLDY    23  11  60 NW15G22   30.19R WCI  10
$$

WVZ045-090300-
Greenbrier Valley of West Virginia

CITY           SKY/WX    TMP DP  RH WIND       PRES   REMARKS
LEWISBURG      CLOUDY    26  11  52 NW10G24   30.18S WCI  16
$$

WVZ047-090300-
Northern Mountains of West Virginia

CITY           SKY/WX    TMP DP  RH WIND       PRES   REMARKS
ELKINS         FLURRIES  25  13  60 W16G23    30.19R WCI  12
$$

WVZ052-090300-
Eastern Panhandle of West Virginia

CITY           SKY/WX    TMP DP  RH WIND       PRES   REMARKS
MARTINSBURG    CLOUDY    32  13  45 W13G25    30.17R WCI  22
PETERSBURG     CLOUDY    32  15  49 NW22G38   30.18S WCI  20
$$




USA.gov is the U.S. government's official web portal to all federal, state and local government web resources and services.